STARLINK-31861, 59906

Orbit data source: Space-Track

STARLINK-31861, 59906 is a payload satellite owned by SpaceX/Seattle (US) in LEO that was launched on Tue, 28 May 2024 UTC via an FALCON 9 launch vehicle from the Air Force Eastern Test Range (AFETR). Payload-class satellites include a variety of spacecraft equipped with specific instruments for various scientific and technological missions. These include communications satellites like Starlink; space stations such as the ISS; scientific satellites like the Hubble; Earth observation satellites from companies like Planet Labs, Umbra, and HawkEye 360; GPS; miniature CubeSats for education and research; and military/defense satellites.

Loading next visibility...
Identifier
59906, 2024-100X
Orbit
LEO
Country
Flag of USUS
Related business
Manufacturer
SpaceX/Seattle
Mission
Operational Commercial Communications
Bus & Motor
STARLINK V2M, Unknown motor
Mass
730 kg wet, ~700 kg dry
Launch date (UTC)
2024-05-28 (2 years ago)
Launch vehicle
FALCON 9
Launch site
Air Force Eastern Test Range (AFETR)
Object type
Payload
Rocket body
Debris
Shape & HBR
Box + 2 Pan, 17.7 m
Radar Cross Section
33.884 m², Large (>1 m²)

Expand to show TLE details & history
Last TLE update: 12 hours ago

TLE from 12 hours ago
0 STARLINK-31861
1 59906U 24100X   26126.12858546 -.00000032  00000-0  83699-5 0  9998
2 59906  43.0024 153.8735 0001062 283.5161  76.5572 15.27574898110012
Epoch: 2026-05-06T03:05Z
TLE epoch observation values (Epoch: 2026-05-06T03:05:09.783Z)
Latitude
-0.00005°
Longitude
-116.41084°
Altitude
482.671 km
Speed
7.626 km/s
True Right ascension
10h 15m 29s
True Declination
0° 00' 00"
Sunlit
Object was in daylight at epoch
Visualization orbit readout
Latitude
Unknown
Longitude
Unknown
Altitude
Unknown
Speed
Unknown
Apparent Right ascension
Unknown
Apparent Declination
Unknown
Sunlit
N/A
Visualization observer readout
Local Sidereal Time
23:15:14
Azimuth
Unknown
Elevation
Unknown
Doppler factor
Unknown
Orbital elements
Apogee altitude
485.738 km
Perigee altitude
484.28 km
Semi-major axis
6,863.146 km
Eccentricity
0.00011
Inclination
43.0024°
RAAN
153.8735°
Arg. of periapsis
283.5161°
True anomaly
76.56904°
Mean anomaly
76.5572°
Eccentric anomaly
76.56312°
Mean motion
3.81732 °/min
Orbital period
94.31 mins
BSTAR
0.0000083699
Loading maneuver chart data...
Computing Atmospheric mass density...
Loading historical data...
Loading historical data...
Loading historical data...
Loading historical data...
Loading historical data...
Loading historical data...
Loading historical data...

Documentation

Showing up to 5 results
|